DW7744 Weather Reports


Display with metric or nautical units.
time (UTC)temp
F
wind
direction
speed
MPH
gust
MPH
rain 1hr
in
rain 24hr
in
rain mn
in
humidity
%
barometer
mb
20260502180403 77 14 0.0 2.0 0.00 0.00 0.00 34 946.0
20260502170405 87 39 0.0 2.0 0.00 0.00 0.00 27 946.1
20260502163904 86 341 2.0 3.0 0.00 0.00 0.00 28 946.3
20260502162903 86 5 1.0 2.0 0.00 0.00 0.00 29 946.3
20260502162403 86 6 2.0 5.0 0.00 0.00 0.00 28 946.6
20260502161904 86 280 2.0 5.0 0.00 0.00 0.00 28 946.6
20260502161403 85 44 2.0 5.0 0.00 0.00 0.00 28 946.6
20260502160903 85 337 2.0 5.0 0.00 0.00 0.00 29 946.7
20260502160404 85 326 2.0 3.0 0.00 0.00 0.00 29 946.7
20260502151904 85 99 2.0 3.0 0.00 0.00 0.00 31 947.0
20260502151404 85 100 2.0 3.0 0.00 0.00 0.00 31 947.0
20260502150904 85 325 2.0 3.0 0.00 0.00 0.00 31 947.1
20260502150403 85 344 2.0 3.0 0.00 0.00 0.00 30 947.1
20260502123404 80 112 3.0 5.0 0.00 0.00 0.00 32 949.2
20260502122404 80 112 2.0 5.0 0.00 0.00 0.00 35 949.5
20260502121904 80 122 2.0 5.0 0.00 0.00 0.00 34 949.5
20260502120403 80 99 2.0 3.0 0.00 0.00 0.00 37 949.7
20260502115904 80 84 2.0 3.0 0.00 0.00 0.00 40 949.7
20260502115403 79 67 2.0 3.0 0.00 0.00 0.00 40 949.9
20260502114903 79 79 2.0 5.0 0.00 0.00 0.00 40 949.9
20260502114403 79 99 2.0 5.0 0.00 0.00 0.00 40 949.9
20260502113903 78 74 2.0 5.0 0.00 0.00 0.00 42 950.2
20260502113403 78 15 2.0 3.0 0.00 0.00 0.00 42 950.2
20260502111403 76 72 2.0 5.0 0.00 0.00 0.00 45 950.4
20260502110904 76 79 2.0 5.0 0.00 0.00 0.00 47 950.5
20260502110403 75 90 2.0 5.0 0.00 0.00 0.00 49 950.5
20260502105904 74 87 2.0 5.0 0.00 0.00 0.00 49 950.5
20260502105404 73 85 2.0 5.0 0.00 0.00 0.00 51 950.7
20260502104403 72 101 2.0 5.0 0.00 0.00 0.00 52 950.7
20260502103903 71 84 2.0 5.0 0.00 0.00 0.00 53 950.8
20260502103403 71 83 2.0 5.0 0.00 0.00 0.00 55 950.8
20260502102903 70 91 2.0 5.0 0.00 0.00 0.00 55 950.8
20260502102404 69 99 1.0 3.0 0.00 0.00 0.00 56 951.0
20260502101404 68 272 2.0 5.0 0.00 0.00 0.00 55 951.0
20260502100904 68 5 2.0 3.0 0.00 0.00 0.00 56 951.2
20260502100403 68 339 5.0 7.0 0.00 0.00 0.00 57 951.2
20260502091404 66 87 2.0 5.0 0.00 0.00 0.00 61 951.5
20260502090904 66 79 2.0 5.0 0.00 0.00 0.00 63 951.7
20260502090403 65 112 3.0 5.0 0.00 0.00 0.00 64 951.7
20260502071404 58 105 2.0 5.0 0.00 0.00 0.00 72 951.8
20260502070903 58 104 2.0 5.0 0.00 0.00 0.00 73 951.8
20260502070404 58 115 2.0 2.0 0.00 0.00 0.00 73 951.8
20260502065904 58 115 2.0 2.0 0.00 0.00 0.00 73 951.8
20260502064404 57 110 2.0 5.0 0.00 0.00 0.00 72 951.8
20260502063904 57 84 2.0 5.0 0.00 0.00 0.00 71 951.8
20260502063404 57 85 2.0 5.0 0.00 0.00 0.00 71 951.8
20260502062903 57 105 2.0 2.0 0.00 0.00 0.00 72 951.8
20260502062403 57 105 2.0 2.0 0.00 0.00 0.00 73 951.7
20260502061904 56 105 2.0 3.0 0.00 0.00 0.00 73 951.7
20260502061404 56 104 2.0 3.0 0.00 0.00 0.00 72 951.7
20260502060903 56 129 2.0 3.0 0.00 0.00 0.00 70 951.7
20260502060404 56 129 2.0 3.0 0.00 0.00 0.00 70 951.7
20260502055904 56 125 2.0 3.0 0.00 0.00 0.00 71 951.7
20260502055404 56 126 1.0 2.0 0.00 0.00 0.00 72 951.7
20260502054904 56 126 1.0 2.0 0.00 0.00 0.00 71 951.7
20260502054404 55 126 2.0 2.0 0.00 0.00 0.00 71 951.7
20260502053904 55 126 2.0 5.0 0.00 0.00 0.00 71 951.7
20260502052903 55 137 0.0 2.0 0.00 0.00 0.00 70 951.7
20260502052403 55 137 0.0 2.0 0.00 0.00 0.00 69 951.6
20260502051904 55 137 0.0 2.0 0.00 0.00 0.00 71 951.6
20260502051403 54 137 0.0 1.0 0.00 0.00 0.00 71 951.6
20260502050904 54 137 0.0 0.0 0.00 0.00 0.00 71 951.4
20260502050404 54 141 0.0 1.0 0.00 0.00 0.00 71 951.4
20260502045904 53 141 0.0 2.0 0.00 0.00 0.00 71 951.4
20260502045404 53 128 2.0 3.0 0.00 0.00 0.00 71 951.4
20260502044904 53 128 2.0 5.0 0.00 0.00 0.00 71 951.4
20260502044403 53 130 1.0 5.0 0.00 0.00 0.00 70 951.4
20260502043903 53 130 1.0 5.0 0.00 0.00 0.00 70 951.5
20260502043403 53 229 0.0 2.0 0.00 0.00 0.00 70 951.5
20260502042403 52 229 2.0 2.0 0.00 0.00 0.00 69 951.5
20260502041904 53 229 2.0 2.0 0.00 0.00 0.00 70 951.5
20260502041404 53 229 0.0 2.0 0.00 0.00 0.00 70 951.5
20260502040903 53 229 0.0 0.0 0.00 0.00 0.00 69 951.4
20260502034403 53 231 2.0 5.0 0.00 0.00 0.00 68 951.4
20260502033903 53 230 2.0 5.0 0.00 0.00 0.00 68 951.4
20260502033404 53 229 2.0 5.0 0.00 0.00 0.00 68 951.4
20260502032904 53 230 2.0 5.0 0.00 0.00 0.00 67 951.4
20260502032403 53 233 0.0 5.0 0.00 0.00 0.00 67 951.4
20260502031903 54 230 0.0 3.0 0.00 0.00 0.00 66 951.4
20260502031403 54 136 0.0 0.0 0.00 0.00 0.00 65 951.4
20260502030903 54 136 0.0 2.0 0.00 0.00 0.00 66 951.4
20260502030404 54 136 2.0 2.0 0.00 0.00 0.00 66 951.4
20260502025903 54 136 2.0 2.0 0.00 0.00 0.00 65 951.4
20260502024904 54 186 1.0 2.0 0.00 0.00 0.00 66 951.4
20260502024403 54 184 2.0 5.0 0.00 0.00 0.00 65 951.4
20260502023903 53 180 2.0 5.0 0.00 0.00 0.00 66 951.4
20260502022904 54 183 1.0 3.0 0.00 0.00 0.00 64 951.4
20260502022404 54 228 2.0 2.0 0.00 0.00 0.00 63 951.4
20260502021903 54 228 2.0 2.0 0.00 0.00 0.00 62 951.4
20260502021403 54 228 2.0 2.0 0.00 0.00 0.00 62 951.4
20260502020903 54 228 2.0 2.0 0.00 0.00 0.00 62 951.5
20260502015903 54 228 2.0 5.0 0.00 0.00 0.00 59 951.5
20260502015404 54 229 3.0 5.0 0.00 0.00 0.00 59 951.5
20260502014904 54 229 3.0 5.0 0.00 0.00 0.00 59 951.5
20260502014404 54 225 3.0 5.0 0.00 0.00 0.00 56 951.5
20260502013904 54 236 3.0 5.0 0.00 0.00 0.00 57 951.5
20260502013404 54 249 3.0 5.0 0.00 0.00 0.00 58 951.5
20260502012903 54 255 3.0 5.0 0.00 0.00 0.00 58 951.5
20260502012404 54 258 3.0 6.0 0.00 0.00 0.00 58 951.5
20260502011403 55 254 2.0 6.0 0.00 0.00 0.00 60 951.5
20260502010404 55 242 2.0 5.0 0.00 0.00 0.00 62 951.5
20260502005904 55 243 2.0 5.0 0.00 0.00 0.00 62 951.5
20260502005404 56 243 2.0 5.0 0.00 0.00 0.00 62 951.6
20260502004904 56 237 2.0 3.0 0.00 0.00 0.00 62 951.6
20260502004403 56 234 3.0 5.0 0.00 0.00 0.00 61 951.6
20260502003404 56 236 2.0 5.0 0.00 0.00 0.00 61 951.6
20260502002903 56 238 2.0 5.0 0.00 0.00 0.00 60 951.6
20260502002403 56 230 0.0 2.0 0.00 0.00 0.00 59 951.6
20260502001404 57 228 0.0 2.0 0.00 0.00 0.00 59 951.6
20260502000904 57 228 0.0 2.0 0.00 0.00 0.00 58 951.7
20260502000404 57 228 2.0 2.0 0.00 0.00 0.00 58 951.7
20260501235903 57 228 2.0 3.0 0.00 0.00 0.00 58 951.7
20260501233903 58 242 0.0 3.0 0.00 0.00 0.00 57 951.7
20260501233404 58 113 0.0 2.0 0.00 0.00 0.00 57 951.7
20260501232903 58 113 0.0 2.0 0.00 0.00 0.00 56 951.7
20260501232404 58 114 2.0 3.0 0.00 0.00 0.00 56 951.7
20260501231904 58 113 2.0 6.0 0.00 0.00 0.00 56 951.7
20260501231403 58 112 2.0 6.0 0.00 0.00 0.00 56 951.7
20260501230904 58 109 2.0 2.0 0.00 0.00 0.00 55 951.7
20260501230405 58 223 2.0 5.0 0.00 0.00 0.00 53 951.7
20260501225903 58 223 2.0 5.0 0.00 0.00 0.00 52 951.7
20260501225404 58 223 0.0 5.0 0.00 0.00 0.00 52 951.6
20260501224904 58 221 0.0 2.0 0.00 0.00 0.00 52 951.6
20260501223404 58 220 1.0 5.0 0.00 0.00 0.00 45 951.7
20260501222904 59 196 1.0 3.0 0.00 0.00 0.00 44 951.7
20260501222403 59 228 2.0 2.0 0.00 0.00 0.00 44 951.7
20260501221404 59 228 2.0 3.0 0.00 0.00 0.00 43 951.7
20260501220904 59 229 2.0 3.0 0.00 0.00 0.00 42 951.7
20260501220403 60 229 2.0 3.0 0.00 0.00 0.00 43 951.7
20260501215904 60 230 2.0 5.0 0.00 0.00 0.00 42 951.7
20260501215404 60 229 2.0 5.0 0.00 0.00 0.00 41 951.7
20260501214903 60 237 2.0 5.0 0.00 0.00 0.00 41 951.7
20260501214404 60 139 0.0 2.0 0.00 0.00 0.00 41 951.7
20260501213403 61 111 0.0 0.0 0.00 0.00 0.00 41 951.7
20260501212903 61 112 0.0 0.0 0.00 0.00 0.00 41 951.7
20260501212404 61 112 0.0 0.0 0.00 0.00 0.00 41 951.7
20260501211903 61 112 0.0 0.0 0.00 0.00 0.00 41 951.7
20260501211403 61 112 1.0 2.0 0.00 0.00 0.00 41 951.7
20260501210903 61 112 1.0 2.0 0.00 0.00 0.00 41 951.7
20260501205904 61 112 0.0 2.0 0.00 0.00 0.00 40 951.7
20260501205403 61 112 2.0 2.0 0.00 0.00 0.00 40 951.8
20260501204903 61 112 2.0 3.0 0.00 0.00 0.00 41 951.8
20260501203904 61 110 2.0 5.0 0.00 0.00 0.00 41 951.8
20260501203404 61 109 1.0 5.0 0.00 0.00 0.00 40 951.8
20260501202904 62 109 1.0 2.0 0.00 0.00 0.00 39 951.8
20260501201403 61 109 2.0 3.0 0.00 0.00 0.00 39 951.7
20260501200903 61 107 2.0 3.0 0.00 0.00 0.00 39 951.6
20260501200403 61 206 2.0 2.0 0.00 0.00 0.00 38 951.6
20260501195904 62 206 2.0 2.0 0.00 0.00 0.00 38 951.6
20260501194404 62 206 1.0 2.0 0.00 0.00 0.00 37 951.6
20260501193904 63 214 1.0 2.0 0.00 0.00 0.00 37 951.5
20260501193404 63 214 2.0 2.0 0.00 0.00 0.00 36 951.5
20260501192903 63 214 2.0 2.0 0.00 0.00 0.00 36 951.5
20260501191404 65 64 0.0 2.0 0.00 0.00 0.00 34 951.4
20260501190904 65 64 0.0 2.0 0.00 0.00 0.00 35 951.3
20260501185904 65 64 0.0 0.0 0.00 0.00 0.00 33 951.3
20260501185403 66 64 0.0 0.0 0.00 0.00 0.00 33 951.3
20260501184404 67 64 0.0 2.0 0.00 0.00 0.00 33 951.3
20260501183904 68 64 0.0 2.0 0.00 0.00 0.00 34 951.2
20260501183404 68 64 0.0 1.0 0.00 0.00 0.00 34 951.2
20260501182904 69 64 0.0 0.0 0.00 0.00 0.00 35 951.2